Weather History for Pine Ridge, SD

Change the Weather History Date:

Thursday, May 3, 2012

  Actual Average Record
Temperature  
Mean Temperature 56 °F 51 °F  
Max Temperature 75 °F 66 °F 82 °F (2004)
Min Temperature 37 °F 37 °F 16 °F (2005)
Degree Days  
Heating Degree Days 9 14  
Month to date heating degree days 22 43  
Since 1 July heating degree days 6046 6863  
Cooling Degree Days 0 0  
Month to date cooling degree days 0 0  
Year to date cooling degree days 1 0  
Growing Degree Days 6 (Base 50)    
Moisture  
Dew Point 44 °F    
Average Humidity 65    
Maximum Humidity 96    
Minimum Humidity 33    
Precipitation  
Precipitation 0.07 in 0.10 in 0.21 in (2001)
Month to date precipitation 0.07 0.31  
Year to date precipitation 4.31 3.88  
Sea Level Pressure  
Sea Level Pressure 29.85 in    
Wind  
Wind Speed 9 mph (ENE)    
Max Wind Speed 21 mph    
Max Gust Speed 28 mph    
Visibility 10 miles    
Events Rain    
T = Trace of Precipitation, MM = Missing Value Source: NWS Daily Summary

Daily Weather History Graph

Daily Weather History Graph

Search for Another Location

Airport:

Trip Planner

Search our weather history database for the weather conditions in past years. The results will help you decide how hot, cold, wet, or windy it might be!

Date:

Astronomy

May. 03, 2012 Rise Set
Actual Time 5:40 AM MDT 7:54 PM MDT
Civil Twilight 5:09 AM MDT 8:25 PM MDT
Nautical Twilight 4:30 AM MDT 9:04 PM MDT
Astronomical Twilight 3:47 AM MDT 9:47 PM MDT
Moon 5:17 PM MDT (5/3) 3:49 AM MDT (5/3)
Length of Visible Light 15h 16m
Length of Day
14h 13m
Waxing Gibbous, 91% of the Moon is Illuminated
May 3
Waxing Gibbous
May 5
Full
May 12
Last Quarter
May 20
New
May 28
First Quarter

Hourly Weather History & Observations

Time (MDT) Temp. Dew Point Humidity Pressure Visibility Wind Dir Wind Speed Gust Speed Precip Events Conditions
12:52 AM 55.9 °F 43.0 °F 62% 29.76 in 10.0 mi North 5.8 mph - N/A   Clear
1:52 AM 53.1 °F 43.0 °F 69% 29.77 in 10.0 mi North 5.8 mph - N/A   Clear
2:52 AM 48.0 °F 43.0 °F 83% 29.80 in 10.0 mi NNW 5.8 mph - N/A   Clear
3:52 AM 45.0 °F 41.0 °F 86% 29.83 in 10.0 mi Calm Calm - N/A   Clear
4:52 AM 39.0 °F 37.0 °F 93% 29.87 in 10.0 mi Calm Calm - N/A   Clear
5:52 AM 39.0 °F 37.0 °F 93% 29.89 in 10.0 mi Calm Calm - N/A   Clear
6:52 AM 42.1 °F 41.0 °F 96% 29.92 in 10.0 mi Calm Calm - N/A   Clear
7:52 AM 48.9 °F 43.0 °F 80% 29.93 in 10.0 mi Calm Calm - N/A   Clear
8:52 AM 53.1 °F 45.0 °F 74% 29.93 in 10.0 mi Calm Calm - N/A   Clear
9:52 AM 60.1 °F 45.0 °F 57% 29.92 in 10.0 mi ENE 5.8 mph - N/A   Clear
10:52 AM 64.0 °F 44.1 °F 48% 29.91 in 10.0 mi East 9.2 mph - N/A   Clear
11:52 AM 66.9 °F 44.1 °F 44% 29.90 in 10.0 mi East 8.1 mph 16.1 mph N/A   Clear
2:52 PM 72.0 °F 43.0 °F 35% 29.85 in 10.0 mi SE 10.4 mph - N/A   Clear
3:52 PM 73.9 °F 42.1 °F 32% 29.82 in 10.0 mi East 15.0 mph 23.0 mph N/A   Clear
4:52 PM 73.0 °F 43.0 °F 34% 29.83 in 10.0 mi East 16.1 mph 21.9 mph N/A   Clear
5:52 PM 71.1 °F 44.1 °F 38% 29.85 in 10.0 mi East 12.7 mph - N/A   Clear
6:52 PM 69.1 °F 45.0 °F 42% 29.84 in 10.0 mi East 16.1 mph 23.0 mph N/A   Scattered Clouds
8:52 PM 62.1 °F 46.0 °F 56% 29.83 in 10.0 mi East 16.1 mph - N/A   Scattered Clouds
9:52 PM 62.1 °F 46.0 °F 56% 29.83 in 10.0 mi East 13.8 mph - N/A   Scattered Clouds
10:52 PM 60.1 °F 48.9 °F 67% 29.81 in 10.0 mi East 16.1 mph 21.9 mph 0.00 in Rain Light Rain
11:52 PM 59.0 °F 51.1 °F 75% 29.85 in 10.0 mi NNE 8.1 mph - 0.01 in Rain Light Rain